Flag for U.S.A. Weather past 2 weeks in Chesapeake, Virginia, U.S.A.

45 °F


Feels Like: 45 °F
Forecast: 50 / 71 °F
Wind: No wind

Location: Chesapeake Municipal Airport

Current Time: Nov 27, 2015 at 7:58:08 AM

Latest Report: Nov 27, 2015 at 7:15 AM

Visibility: 0 mi

Pressure: 30.55 "Hg

Humidity: 87%

Dew point: 41 °F

Location of ChesapeakeLocation

Historic Weather in Chesapeake — Graph


Chesapeake temperature yesterday

Maximum temperature yesterday: 72 °F (at 11:35 AM)
Minimum temperature yesterday: 37 °F (at 3:15 AM)
Average temperature yesterday: 54 °F

Past Weeks' High & Low Weather Summary

High75 °F (Nov 12, 1:35 PM)88% (Nov 12, 7:35 AM)30.75 "Hg (Nov 12, 7:35 AM)
Low27 °F (Nov 24, 3:15 AM)7% (Nov 16, 1:55 PM)29.68 "Hg (Nov 12, 4:55 PM)
Average53 °F59%30.25 "Hg
* Reported Nov 12 6:15 AM — Nov 27 6:15 AM, Chesapeake, Weather by CustomWeather, © 2015

Note: Actual official high and low records may vary slightly from our data, if they occured in-between our weather recording intervals... More about our weather records


Chesapeake weather history for previous 24 hours

Time TempWeatherWind HumidityBarometerVisibility
6:15 AM
Fri, Nov 27
45 °FFog.No wind81%30.54 "Hg1 mi
5:55 AM43 °FFog.3 mph87%30.55 "Hg1 mi
5:35 AM45 °FFog.No wind81%30.53 "Hg1 mi
5:15 AM45 °FFog.No wind81%30.54 "Hg1 mi
4:55 AM43 °FFog.No wind87%30.54 "Hg2 mi
4:35 AM45 °FFog.No wind81%30.54 "Hg2 mi
4:15 AM43 °FFog.No wind87%30.54 "Hg3 mi
3:55 AM45 °FFog.No wind81%30.54 "Hg0 mi
3:35 AM45 °FPassing clouds.No wind81%30.55 "Hg10 mi
3:15 AM45 °FPassing clouds.No wind81%30.56 "Hg7 mi
2:55 AM45 °FPassing clouds.No wind81%30.57 "Hg5 mi
2:15 AM43 °FClear.No wind87%30.60 "Hg10 mi
1:55 AM45 °FDense fog.No wind81%30.60 "Hg2 mi
1:15 AM45 °FClear.No wind81%30.60 "Hg4 mi
12:55 AM45 °FClear.No wind81%30.60 "Hg10 mi
12:15 AM43 °FFog.No wind87%30.61 "Hg4 mi
11:55 PM
Thu, Nov 26
45 °FClear.No wind81%30.61 "Hg10 mi
10:55 PM45 °FClear.No wind81%30.61 "Hg10 mi
10:15 PM48 °FClear.No wind82%30.61 "Hg10 mi
9:55 PM48 °FClear.No wind82%30.62 "Hg10 mi
9:15 PM48 °FClear.No wind82%30.64 "Hg10 mi
8:55 PM48 °FClear.No wind82%30.64 "Hg10 mi
8:35 PM52 °FClear.No wind82%30.64 "Hg10 mi
8:15 PM52 °FClear.No wind77%30.64 "Hg10 mi
7:55 PM52 °FClear.No wind77%30.65 "Hg10 mi
7:15 PM54 °FClear.No wind77%30.65 "Hg10 mi
6:55 PM54 °FClear.No wind77%30.65 "Hg10 mi
6:35 PM55 °FClear.No wind77%30.65 "Hg10 mi
6:15 PM55 °FClear.No wind72%30.66 "Hg10 mi
5:55 PM55 °FClear.No wind72%30.66 "Hg10 mi
4:55 PM64 °FClear.6 mph52%30.67 "Hg10 mi
4:35 PM66 °FSunny.7 mph49%30.67 "Hg10 mi
4:15 PM68 °FSunny.6 mph46%30.67 "Hg10 mi
3:55 PM70 °FSunny.7 mph40%30.67 "Hg10 mi
3:35 PM70 °FSunny.8 mph38%30.67 "Hg10 mi
3:15 PM72 °FSunny.8 mph36%30.66 "Hg10 mi
2:55 PM72 °FSunny.8 mph36%30.66 "Hg10 mi
2:35 PM72 °FSunny.8 mph33%30.66 "Hg10 mi
2:15 PM72 °FSunny.9 mph33%30.67 "Hg10 mi
1:55 PM72 °FSunny.8 mph36%30.67 "Hg10 mi
1:35 PM72 °FSunny.10 mph36%30.68 "Hg10 mi
1:15 PM72 °FSunny.6 mph36%30.68 "Hg10 mi
12:55 PM72 °FSunny.8 mph36%30.68 "Hg10 mi
12:35 PM72 °FSunny.12 mph36%30.69 "Hg10 mi
12:15 PM72 °FSunny.8 mph36%30.70 "Hg10 mi
11:55 AM72 °FSunny.8 mph38%30.71 "Hg10 mi
11:35 AM72 °FSunny.10 mph41%30.72 "Hg10 mi
11:15 AM70 °FSunny.9 mph43%30.73 "Hg10 mi
10:55 AM70 °FSunny.9 mph46%30.74 "Hg10 mi
10:35 AM68 °FSunny.7 mph56%30.74 "Hg10 mi
10:15 AM66 °FSunny.9 mph60%30.75 "Hg10 mi
9:55 AM66 °FSunny.8 mph60%30.75 "Hg10 mi
9:35 AM63 °FSunny.6 mph68%30.75 "Hg10 mi
9:15 AM61 °FSunny.3 mph72%30.75 "Hg10 mi
8:55 AM55 °FSunny.No wind82%30.75 "Hg10 mi
8:35 AM50 °FSunny.No wind82%30.74 "Hg5 mi
8:15 AM45 °FFog.No wind87%30.74 "Hg2 mi
7:55 AM43 °FFog.No wind87%30.74 "Hg0 mi
7:35 AM39 °FFog.No wind87%30.74 "Hg0 mi
7:15 AM39 °FFog.No wind87%30.73 "Hg2 mi
Weather by CustomWeather, © 2015

See weather overviewHow to use our weather pages